Simultaneous Nadir Overpasses (SNOs) Predictions

Prediction of SNOs between METOP-B and NOAA-19 Satellite Orbit:

Table of predicted SNOs for the next 14.0 days since TLE Epoch: 2/12/2022
Index Date (METOP-B) Time (METOP-B) Lat,Lon (METOP-B) SZA (METOP-B ) Date (NOAA-19) Time (NOAA-19) Lat,Lon (NOAA-19) SZA (NOAA-19 ) Distance(km) Time Diff (sec)
1 02/22/2022 16:31:53 80.78, -36.05 91.86 02/22/2022 16:30:48 80.78, -36.23 91.83 3.28 65
2 02/22/2022 17:22:35 -80.77, 131.13 88.18 02/22/2022 17:21:43 -80.78, 131.15 88.18 0.89 52
3 02/22/2022 18:13:15 80.77, -61.54 91.82 02/22/2022 18:12:48 80.78, -61.70 91.81 3.05 27
4 02/22/2022 19:03:56 -80.78, 105.99 88.18 02/22/2022 19:03:42 -80.77, 106.05 88.19 1.89 14
5 02/22/2022 19:54:36 80.78, -86.68 91.82 02/22/2022 19:54:47 80.77, -86.80 91.80 2.48 11
6 02/22/2022 20:45:18 -80.77, 80.50 88.22 02/22/2022 20:45:42 -80.77, 80.58 88.21 1.68 24
7 02/22/2022 21:35:58 80.77,-112.18 91.77 02/22/2022 21:36:47 80.77,-112.27 91.78 1.74 49



Historial Predications of SNOs between METOP-B and NOAA-19
